Theta_e
317 322 332 334 343 344 348 348 346 348 343 345 345 348 349 351 350 354 348 350 348 347 345 344 343 343 342 345 344 345 337 335 338 339 340 339 338 336 336 336 335 334 333 334 334 333 332 326 322
319 331 330 333 341 346 347 343 349 350 346 346 344 343 344 356 350 349 350 349 348 346 344 343 342 334 345 346 347 342 334 331 333 337 338 336 335 335 336 334 333 332 331 331 331 331 333 342 336
325 331 336 336 338 339 339 347 349 349 348 348 349 348 347 352 349 349 350 348 347 345 344 344 338 338 348 348 344 335 327 322 327 332 330 330 334 335 333 332 332 331 331 332 335 336 337 341 343
326 329 328 336 333 334 340 348 349 348 343 349 347 352 351 350 348 349 350 349 346 344 341 343 338 344 349 344 339 331 321 322 324 325 331 331 333 329 331 333 334 335 335 334 330 333 341 342 343
321 326 332 330 329 330 330 341 346 347 342 348 350 352 353 352 350 350 350 347 344 342 342 342 341 345 346 342 337 327 321 322 326 327 323 329 329 327 329 332 332 329 328 332 331 336 342 341 341
326 323 326 326 324 323 330 343 346 342 342 349 351 352 355 351 350 350 349 346 343 342 342 341 341 343 343 344 335 324 321 324 325 325 322 325 324 326 326 328 329 324 325 331 333 338 339 336 336
327 326 325 323 323 333 346 344 345 343 341 348 347 355 352 351 349 348 347 345 342 342 341 340 342 346 343 340 331 321 321 324 325 323 321 322 324 323 324 325 323 323 325 330 337 338 336 335 333
322 323 322 320 323 345 345 344 341 340 341 338 343 353 357 351 348 347 345 344 342 341 340 340 342 345 343 342 331 322 322 326 326 324 323 320 320 321 323 328 323 323 325 329 336 335 333 332 330
316 323 321 321 320 330 344 346 342 340 341 342 344 347 348 349 346 346 345 343 342 341 339 338 341 345 343 341 336 325 322 326 329 328 325 324 325 325 329 326 324 322 325 329 335 333 332 326 325
321 322 321 319 319 324 345 344 343 342 341 342 347 348 350 347 347 346 345 343 340 340 340 338 341 345 343 341 339 333 332 332 333 333 330 330 326 328 327 326 325 322 325 331 333 332 328 330 331
317 321 319 319 318 319 344 343 343 343 342 340 346 353 350 349 348 345 344 342 339 339 339 338 341 345 343 341 338 333 332 332 330 332 332 329 327 328 328 328 328 324 327 333 334 332 330 330 330
319 317 317 319 321 336 343 342 344 342 339 339 344 350 350 351 349 346 344 341 339 340 340 338 340 348 344 341 338 330 329 327 331 331 332 331 330 327 327 327 326 325 326 329 331 329 330 331 330
318 317 316 317 316 338 340 341 342 343 339 342 345 349 350 351 349 348 345 343 341 340 340 339 340 341 344 341 339 333 330 327 330 331 332 331 330 328 327 325 324 327 323 322 323 327 328 330 329
318 318 317 316 325 330 332 338 340 341 342 343 347 349 349 350 349 348 346 346 343 341 341 339 338 337 340 341 337 333 327 329 330 332 332 329 329 328 326 324 325 326 323 320 321 322 328 327 328
318 319 317 316 321 326 332 337 336 337 342 345 346 347 347 347 347 347 347 347 346 344 342 340 337 337 337 340 337 336 329 333 335 334 333 331 330 329 329 327 325 324 324 323 321 322 327 327 327
318 317 319 318 318 327 326 328 337 342 345 346 345 343 342 343 342 343 346 346 346 346 345 341 337 337 337 339 337 337 333 335 336 336 332 331 330 328 326 325 325 322 324 323 321 323 326 326 326
318 320 320 320 326 330 329 334 339 342 346 347 346 344 342 339 336 337 338 339 343 346 345 343 338 338 336 334 339 339 335 333 335 337 332 330 329 327 324 323 322 321 325 324 323 323 325 326 326
321 321 321 322 327 333 336 339 341 342 344 346 346 346 344 342 340 339 339 339 338 342 344 344 340 337 332 332 340 340 337 335 336 335 331 330 328 325 323 322 320 320 323 318 323 325 324 324 324
321 323 323 321 333 336 340 340 340 338 343 343 344 345 347 345 340 340 342 340 340 341 342 342 342 339 336 337 340 338 337 336 334 331 331 330 329 326 323 322 320 319 320 320 318 323 324 322 323
321 322 322 331 334 339 340 341 338 337 340 341 341 341 340 341 341 338 340 342 342 342 342 342 342 340 339 338 340 337 337 334 334 332 332 332 330 327 324 322 321 318 323 321 320 320 322 322 321
322 322 327 335 338 338 341 342 343 336 335 336 338 340 342 343 345 342 339 344 343 343 343 342 340 340 339 338 339 337 335 333 333 334 334 333 331 328 325 323 322 322 320 322 321 321 323 322 321
325 321 328 335 335 334 335 330 337 342 339 336 338 342 342 345 342 338 338 342 344 343 344 342 340 339 338 338 337 336 336 336 336 336 334 332 330 328 327 324 322 321 320 318 317 319 320 319 320
324 324 333 333 327 334 338 334 331 334 339 335 335 340 342 344 343 338 342 343 344 342 343 343 340 339 339 337 338 338 338 336 336 335 334 332 331 330 329 327 324 322 323 320 316 316 316 320 319
323 326 327 326 327 327 330 335 332 336 336 335 334 337 341 344 345 347 348 346 345 343 342 343 342 340 339 339 338 338 339 338 336 336 334 333 332 331 329 327 326 325 324 323 320 316 318 319 319
325 329 329 331 331 331 333 332 333 332 331 334 335 337 342 346 350 350 350 348 346 344 343 343 343 343 341 339 339 339 339 339 339 337 335 334 333 331 330 328 326 325 324 323 322 317 316 316 315
327 330 328 329 330 328 332 336 335 331 333 331 335 338 343 348 349 350 349 348 347 345 344 343 344 344 340 340 339 339 339 340 339 337 335 334 333 332 331 330 327 326 325 324 323 320 318 315 315
325 328 327 331 329 331 333 334 330 334 334 333 336 336 342 347 349 349 348 347 345 346 345 344 343 343 341 341 341 340 340 341 340 337 335 334 334 333 332 331 328 327 326 326 325 321 318 315 314
327 323 328 330 336 333 332 335 332 333 335 334 335 336 336 342 347 348 347 347 344 344 345 345 344 344 344 344 344 343 341 340 339 338 336 336 335 334 333 331 330 328 327 326 325 323 320 317 315
323 326 325 329 329 330 331 332 331 331 330 333 336 336 337 339 342 345 346 343 343 342 344 344 344 345 345 344 342 341 341 339 339 338 338 336 336 334 332 331 330 329 328 327 325 324 321 318 316
323 324 330 329 332 329 330 330 325 327 325 327 329 329 329 333 338 341 341 338 340 339 340 344 344 344 343 341 340 338 339 341 340 338 337 337 334 333 333 331 331 331 331 329 327 325 322 320 318
Wind_Speed
5 6 3 1 2 0 2 2 2 1 3 4 6 1 4 5 1 2 5 4 19 20 18 16 16 15 16 15 14 14 12 12 13 13 14 13 12 11 10 10 10 10 10 9 8 7 6 5 4
6 5 1 1 1 3 2 2 5 4 9 4 8 6 4 4 4 9 9 15 18 19 18 17 17 17 16 14 13 12 11 12 13 13 13 12 11 10 9 9 10 10 10 9 9 9 9 12 7
6 2 1 2 2 3 3 5 3 7 5 1 4 7 2 3 6 13 12 23 21 19 17 16 17 18 16 14 11 11 10 11 12 13 12 12 12 10 10 10 11 11 12 12 11 10 10 13 12
3 2 3 1 2 1 2 5 6 10 3 3 7 8 5 2 8 9 19 21 20 18 16 14 16 17 14 12 11 10 11 11 12 11 11 12 12 11 11 12 13 13 13 12 11 12 13 12 13
2 0 2 1 1 3 5 4 5 5 3 4 0 6 7 3 7 16 20 21 20 18 14 14 16 16 13 12 10 10 11 11 11 11 11 12 11 12 13 13 13 12 13 11 9 13 14 13 12
2 1 2 2 2 3 5 2 3 5 1 6 8 8 5 5 11 14 17 17 16 17 15 13 15 14 11 12 9 10 10 10 11 12 12 13 13 14 14 13 13 12 12 12 10 14 14 13 12
1 1 3 1 4 1 2 5 4 3 4 4 5 5 3 6 11 14 18 17 17 15 14 14 13 13 11 11 11 11 10 11 11 12 13 14 15 14 13 13 13 13 12 12 13 15 15 13 12
2 1 3 1 2 3 3 5 5 2 3 3 2 4 6 10 16 15 16 16 16 15 15 14 14 13 12 11 10 11 11 11 12 11 12 13 14 13 12 12 12 13 11 13 14 13 13 13 11
2 2 4 2 1 1 4 7 4 3 5 3 3 4 7 22 18 18 17 15 14 14 14 14 14 13 12 11 10 11 10 11 11 9 9 10 10 9 9 8 10 11 11 12 13 10 10 11 12
1 2 2 1 1 1 7 5 6 3 6 2 4 7 22 22 19 20 20 19 18 17 16 16 16 13 12 11 11 10 9 9 9 7 7 5 7 6 6 6 8 10 11 13 11 10 9 10 10
1 1 1 2 4 2 8 5 1 3 4 7 8 16 20 20 17 16 16 17 20 19 17 17 16 16 15 12 11 9 7 8 9 8 5 4 4 2 3 3 5 8 11 10 10 10 7 8 9
2 1 2 3 3 5 8 6 3 5 4 2 10 19 20 15 16 16 14 14 16 17 17 17 17 15 15 11 11 11 10 10 9 7 6 5 3 2 2 3 5 8 9 11 10 9 9 9 9
3 2 0 4 2 5 10 4 4 5 2 6 14 17 16 15 15 15 14 13 13 16 16 18 17 14 15 12 11 11 10 11 9 7 5 4 4 2 2 3 5 9 10 11 12 10 9 8 8
2 1 2 2 5 4 5 2 3 4 4 9 14 14 13 12 14 13 14 15 16 15 16 16 18 16 17 13 12 12 12 11 10 7 5 3 4 3 1 4 6 9 11 12 11 10 10 9 8
1 6 3 4 5 1 4 2 3 9 3 5 10 10 10 10 13 16 17 17 18 17 16 19 19 18 16 15 12 12 12 11 9 7 6 5 4 3 2 5 8 9 10 10 12 9 10 9 8
2 3 7 2 3 0 4 2 3 5 2 6 9 9 10 10 10 13 16 16 16 17 20 20 19 18 17 15 14 10 10 10 9 8 6 5 4 5 5 7 8 9 8 11 9 10 11 10 10
3 5 8 6 2 3 3 1 3 3 1 4 7 6 7 8 7 7 8 10 16 17 17 20 20 15 17 15 11 11 12 12 11 11 9 6 6 5 6 6 8 9 8 10 8 9 11 11 10
4 4 3 3 3 2 2 1 1 3 2 4 6 6 6 6 4 4 5 8 8 15 16 17 17 16 17 16 16 12 12 14 14 12 11 8 6 5 6 6 7 8 8 10 8 9 10 11 12
5 4 2 2 4 2 2 2 0 3 3 6 6 9 9 7 4 5 3 5 6 9 13 14 16 18 18 17 13 8 11 12 12 11 10 9 8 7 7 5 7 7 7 9 9 8 9 6 10
3 4 5 4 7 1 2 1 3 3 3 4 6 11 9 8 8 10 6 7 8 10 12 14 17 20 18 18 16 6 8 9 10 11 11 11 9 8 8 7 6 7 6 7 9 10 7 7 11
6 7 11 8 7 8 4 2 3 3 3 5 7 10 8 8 10 7 9 7 9 11 13 15 20 21 20 19 16 10 8 11 13 15 14 12 10 10 9 10 9 7 6 6 7 8 8 9 9
4 9 11 15 7 3 2 3 6 6 5 5 9 9 6 7 6 4 4 6 6 8 10 14 20 21 19 20 17 16 12 10 10 8 9 11 11 10 10 10 11 9 6 7 7 8 8 8 10
5 10 10 10 5 4 5 3 1 3 9 11 12 10 9 5 3 3 2 1 3 8 12 14 16 19 20 20 16 14 11 9 7 6 7 9 11 12 11 11 12 12 10 9 9 9 11 9 9
15 11 9 5 3 5 4 6 4 3 4 7 16 11 11 5 4 2 5 6 7 8 10 13 17 18 18 16 15 15 11 8 6 4 5 6 7 8 12 11 13 13 13 12 10 9 10 11 10
3 6 3 3 4 3 3 5 5 6 8 11 14 12 10 7 6 5 5 7 8 11 14 16 16 14 13 14 13 13 12 10 7 6 6 6 7 8 9 11 13 14 15 13 12 12 12 12 13
6 5 4 5 4 3 4 4 3 5 6 7 7 8 9 10 9 9 9 9 9 11 13 14 14 14 15 14 13 13 12 11 11 12 11 11 10 9 10 11 12 15 15 14 14 12 12 13 15
5 4 3 6 1 3 1 3 3 2 2 5 10 9 12 11 10 11 11 10 9 10 12 13 13 13 12 13 13 14 13 14 13 12 13 11 11 9 10 11 11 13 15 16 15 16 17 16 15
2 9 4 2 5 4 1 3 1 1 4 6 9 12 11 11 12 12 13 13 10 8 10 11 13 14 12 11 11 10 12 13 13 15 17 17 14 11 10 11 12 12 13 14 17 18 20 18 17
5 4 6 4 2 3 3 2 1 2 5 9 11 11 12 14 15 13 14 14 11 9 9 10 12 11 12 11 8 9 11 12 14 17 19 19 17 14 11 12 15 17 18 17 16 16 16 20 20
1 5 4 3 4 2 2 3 1 5 4 4 8 9 10 12 13 13 16 14 14 14 12 7 4 7 10 8 12 7 12 14 15 16 17 16 16 14 14 14 15 18 21 22 22 22 18 20 23
Wind_Direction
145 137 119 263 219 59 66 69 301 13 57 18 91 112 112 65 47 8 120 149 143 143 144 144 146 138 129 128 126 118 114 111 105 98 94 90 82 73 69 61 60 56 55 54 49 47 47 58 79
141 125 58 100 359 87 97 305 245 73 107 76 88 98 75 82 84 122 125 141 145 144 147 149 149 138 133 128 124 114 114 112 107 99 96 92 89 86 79 69 61 57 58 56 52 51 62 63 89
138 124 274 48 81 54 53 230 188 117 86 28 119 65 39 55 123 142 144 148 151 150 150 150 147 139 134 132 127 114 114 111 103 98 92 89 90 89 83 75 69 68 69 71 69 65 82 88 98
167 155 99 303 23 181 235 248 129 130 81 67 98 86 96 74 141 151 146 152 149 147 145 152 145 137 138 135 127 120 120 111 102 95 89 87 91 89 84 80 77 71 67 68 72 84 89 97 101
57 140 117 105 298 269 258 325 101 93 121 94 167 123 101 60 124 144 148 153 150 147 143 146 144 136 143 129 124 122 115 108 103 95 90 89 91 94 92 86 78 71 67 62 74 101 100 103 98
136 282 122 80 290 271 274 5 120 87 102 99 111 126 95 110 131 142 144 147 147 143 141 146 147 140 147 128 127 124 118 112 104 96 95 96 102 102 92 82 75 68 80 70 89 107 100 95 94
180 156 92 38 354 304 46 129 123 118 147 122 118 114 73 153 148 146 147 147 147 147 146 148 150 148 157 146 139 136 127 119 114 100 99 99 104 104 94 82 67 65 94 90 102 104 103 98 93
130 115 125 88 19 66 107 131 128 208 132 98 100 137 163 168 153 148 146 147 150 155 155 156 156 158 155 152 148 146 133 131 125 109 104 104 108 107 94 70 65 67 90 105 108 103 111 107 97
170 117 91 112 189 83 149 188 130 108 115 79 81 144 141 147 150 147 149 154 159 165 167 164 165 165 164 156 158 153 142 143 140 133 120 115 113 109 93 83 71 75 94 115 119 124 112 105 95
292 104 153 189 244 243 160 211 149 185 136 145 104 106 134 148 161 163 167 170 176 176 178 174 171 174 172 164 168 161 158 161 159 155 148 129 120 117 108 96 87 85 100 124 131 121 112 97 96
137 65 215 357 241 259 156 160 200 200 170 186 176 147 151 160 171 179 180 179 181 181 181 183 180 181 177 177 174 168 168 168 169 167 162 162 159 155 138 118 105 111 122 125 124 116 109 112 110
210 341 257 325 131 149 166 138 210 225 100 19 152 154 156 169 176 187 192 187 185 185 187 188 188 188 187 180 180 181 183 179 182 179 184 191 179 181 160 116 135 139 138 134 132 127 125 127 115
170 79 102 295 154 132 143 183 266 218 54 58 143 152 163 170 186 195 198 193 194 197 194 196 191 194 192 191 190 188 190 191 193 199 208 218 209 208 179 163 156 160 153 149 143 139 139 138 130
106 125 220 230 140 154 158 147 299 58 20 96 147 158 165 176 190 200 211 204 201 200 204 200 200 202 195 198 197 197 200 201 205 211 215 225 212 196 223 164 154 171 167 156 159 154 152 149 148
50 107 110 89 142 205 136 121 251 340 319 129 145 151 159 185 188 215 221 221 211 208 205 206 207 204 202 202 208 208 207 208 212 225 225 228 230 232 240 205 178 174 181 172 164 182 172 165 159
64 113 148 145 183 208 257 188 336 9 227 162 156 139 143 143 174 212 221 228 219 210 208 210 203 207 201 203 211 223 219 221 224 234 235 252 255 260 231 200 182 181 177 176 178 195 189 182 178
56 150 144 139 52 142 224 253 27 30 12 208 180 167 172 147 170 201 207 230 228 221 214 210 206 199 202 204 211 231 239 236 234 234 233 241 251 251 229 199 188 185 179 187 191 195 194 200 194
152 131 88 77 47 128 117 181 22 10 286 264 273 238 213 202 154 158 216 225 231 222 215 213 202 195 200 205 217 220 226 238 241 229 224 241 240 234 208 208 204 200 199 198 198 195 198 212 214
142 112 138 71 22 137 86 182 4 351 259 251 267 265 255 256 266 210 221 204 191 203 207 201 190 192 199 206 209 207 226 229 226 221 228 237 245 245 229 227 218 210 198 212 215 194 191 190 201
113 141 152 109 2 128 143 123 306 271 260 272 275 274 268 262 248 232 221 174 186 195 193 187 192 197 198 214 215 243 222 219 219 230 241 251 252 243 237 234 225 215 213 222 203 197 198 197 191
178 178 171 157 115 80 139 255 257 202 245 276 271 268 291 301 288 243 201 188 188 194 188 183 195 196 201 210 209 205 207 221 225 238 247 245 239 228 231 235 232 243 234 221 218 220 222 229 211
156 202 160 142 162 162 8 260 241 243 234 279 277 277 303 324 307 289 243 216 198 195 182 184 192 195 194 194 193 200 202 205 229 239 250 245 239 232 230 232 234 236 233 235 238 239 232 235 239
93 143 138 147 101 140 191 265 239 289 242 235 258 265 282 296 315 0 342 281 223 189 190 190 189 190 193 195 196 201 211 224 237 253 261 241 240 245 246 246 234 231 229 234 240 242 232 233 243
146 106 88 85 137 221 151 227 248 227 246 222 245 237 253 247 256 212 173 172 186 188 189 192 191 196 200 200 207 210 213 220 231 249 254 245 254 252 254 252 237 237 239 240 242 238 231 229 232
100 137 124 182 193 235 134 179 295 283 271 232 228 221 227 228 224 222 218 202 189 186 190 199 202 202 200 207 215 221 221 222 232 236 233 243 253 261 262 265 242 237 240 245 247 244 240 241 243
171 187 183 205 212 200 148 220 140 295 289 236 224 225 222 223 222 222 216 215 203 201 198 201 198 196 204 207 213 214 217 225 230 230 222 217 217 233 257 269 248 242 243 244 247 245 243 245 247
151 169 83 104 55 232 45 237 221 2 131 193 203 207 222 225 229 236 230 231 222 209 203 204 206 210 208 210 208 209 214 233 241 248 250 249 255 247 246 252 254 246 244 244 240 241 249 253 249
194 135 145 117 162 215 164 282 281 67 245 224 227 232 232 234 236 238 240 239 229 225 218 210 208 213 219 221 219 218 225 232 243 251 255 257 256 254 262 264 259 254 251 245 248 247 248 245 247
142 137 67 98 351 167 175 191 264 318 265 248 238 242 240 237 236 239 242 243 239 226 220 211 212 222 226 224 227 231 240 243 248 254 260 256 255 252 246 254 261 261 257 252 246 241 241 247 248
106 132 133 164 174 56 336 176 345 316 314 256 270 273 275 261 255 243 241 234 224 222 220 207 256 314 310 330 352 298 287 265 257 257 263 262 261 255 257 267 260 267 263 258 254 253 243 238 242